This demonstration page uses our WeatherBlox Daily Observations layout. Learn more.

Left ArrowRight Arrow

44.89941, -97.11507

Hourly Observations for August 4, 2016

Temp ( °F °C ) Dew Point ( °F °C ) Humidity (%) Winds ( mph kmh ) Pressure ( in mb ) Visibility ( mi km ) Precip ( " mm )
12:53 am 00:53 Mostly Clear 79 26.1 72 22.2 79 79 SSW 23 37 29.75 1007 10 16 0.00 0.00
1:53 am 01:53 Clear 80 26.7 62 16.7 54 54 VRB 3 6 29.67 1005 10 16 0.00 0.00
2:53 am 02:53 Clear 78 25.6 60 15.6 54 54 WNW 7 11 29.73 1007 10 16 0.00 0.00
3:33 am 03:33 Partly Cloudy with Nearby Thunderstorms 79 26.1 60 15.6 52 52 WNW 15 24 29.71 1006 10 16 0.00 0.00
3:45 am 03:45 Windy with Storms Likely 77 25 61 16.1 58 58 WNW 21 33 29.74 1007 10 16 0.00 0.03
3:53 am 03:53 Mostly Cloudy with Thunderstorms 72 22.2 65 18.3 79 79 NW 20 31 29.79 1009 7 11 0.02 0.51
4:10 am 04:10 Cloudy with Strong Thunderstorms 70 21.1 67 19.4 90 90 WSW 28 44 29.80 1009 2 3 0.23 5.84
4:16 am 04:16 Cloudy with Strong Thunderstorms 69 20.6 66 18.9 90 90 W 16 26 29.80 1009 2 3 0.28 7.11
4:26 am 04:26 Cloudy with Thunderstorms 69 20.6 65 18.3 87 87 Calm 29.80 1009 6 10 0.30 7.62
4:53 am 04:53 Cloudy with Strong Thunderstorms 69 20.6 66 18.9 90 90 SSE 8 13 29.85 1011 2 3 0.48 12.19
5:05 am 05:05 Cloudy with Thunderstorms 69 20.6 67 19.4 93 93 NE 12 19 29.80 1009 7 11 0.02 0.51
5:27 am 05:27 Cloudy with Nearby Thunderstorms 68 20 65 18.3 90 90 NNE 16 26 29.77 1008 10 16 0.05 1.27
5:37 am 05:37 Mostly Cloudy with Nearby Thunderstorms 68 20 65 18.3 90 90 NNW 7 11 29.80 1009 10 16 0.05 1.27
5:44 am 05:44 Mostly Cloudy 68 20 65 18.3 90 90 N 7 11 29.80 1009 10 16 0.05 1.27
5:53 am 05:53 Mostly Cloudy 69 20.6 64 17.8 84 84 NNE 10 17 29.80 1009 10 16 0.05 1.27
6:53 am 06:53 Cloudy with Rain 68 20 63 17.2 84 84 NW 16 26 29.88 1012 8 13 0.02 0.51
7:00 am 07:00 Cloudy with Nearby Thunderstorms 68 20 63 17.2 84 84 NNW 16 26 29.91 1013 6 10 0.01 0.25
7:07 am 07:07 Cloudy with Nearby Thunderstorms 67 19.4 63 17.2 87 87 NNE 12 19 29.88 1012 5 8 0.04 1.02
7:27 am 07:27 Cloudy with Light Rain 66 18.9 58 14.4 75 75 E 7 11 29.85 1011 5 8 0.07 1.78
7:53 am 07:53 Mostly Cloudy with Light Rain 64 17.8 58 14.4 81 81 ENE 6 9 29.82 1010 10 16 0.08 2.03
8:53 am 08:53 Mostly Cloudy 68 20 61 16.1 78 78 SSW 8 13 29.85 1011 10 16 0.00 0.03
9:23 am 09:23 Partly Cloudy with Nearby Thunderstorms 70 21.1 62 16.7 76 76 WSW 3 6 29.85 1011 10 16 0.00 0.00
9:38 am 09:38 Mostly Sunny 71 21.7 62 16.7 73 73 WNW 7 11 29.83 1010 10 16 0.00 0.00
9:53 am 09:53 Sunny 73 22.8 62 16.7 69 69 W 6 9 29.86 1011 10 16 0.00 0.00
10:53 am 10:53 Sunny 75 23.9 61 16.1 62 62 W 15 24 29.88 1012 10 16 0.00 0.00
11:53 am 11:53 Sunny 77 25 54 12.2 45 45 WNW 17 28 29.88 1012 10 16 0.00 0.00
12:53 pm 12:53 Sunny 77 25 52 11.1 42 42 W 17 28 29.89 1012 10 16 0.00 0.00
1:53 pm 13:53 Sunny 79 26.1 53 11.7 41 41 W 18 30 29.87 1012 10 16 0.00 0.00
2:53 pm 14:53 Sunny 80 26.7 55 12.8 42 42 W 17 28 29.88 1012 10 16 0.00 0.00
3:53 pm 15:53 Sunny 79 26.1 56 13.3 45 45 NW 20 31 29.90 1012 10 16 0.00 0.00
4:53 pm 16:53 Sunny 79 26.1 56 13.3 45 45 NW 20 31 29.91 1013 10 16 0.00 0.00
5:53 pm 17:53 Partly Cloudy 78 25.6 57 13.9 48 48 NW 22 35 29.92 1013 10 16 0.00 0.00
6:53 pm 18:53 Sunny 76 24.4 56 13.3 50 50 NW 20 31 29.91 1013 10 16 0.00 0.00
7:53 pm 19:53 Sunny 74 23.3 56 13.3 54 54 NW 20 31 29.91 1013 10 16 0.00 0.00
8:53 pm 20:53 Clear 71 21.7 56 13.3 59 59 NW 14 22 29.92 1013 10 16 0.00 0.00
9:53 pm 21:53 Clear 69 20.6 57 13.9 66 66 NW 7 11 29.96 1015 10 16 0.00 0.00
10:53 pm 22:53 Clear 68 20 57 13.9 68 68 WNW 6 9 29.98 1015 10 16 0.00 0.00
11:53 pm 23:53 Clear 66 18.9 58 14.4 75 75 WNW 5 7 29.99 1016 10 16 0.00 0.00

Powered by AerisWeather